NUSAT-5 (MARYAM) (43204 NORAD) Tracking and Keplerian Element Data

This shows tracking and keplerian element data for the satellite.

Feedback or suggestion? Click here.




ElementValue
Catalog43204
NameNUSAT-5 (MARYAM)
Epoch Orbit20251
Epoch Day269.24518797
Epoch Year2021
RAAN43.4839
Inclination97.5013
Eccentricity0.0014533
Argument of Perigee259.7301
Mean Anonmoly216.8244
Mean Motion15.26516677
Decay Rate3.377E-05
L11 43204U 18015K 21269.24518797 .00003377 00000-0 13187-3 0 9994
L22 43204 97.5013 43.4839 0014533 259.7301 216.8244 15.26516677202517

Live tracking and technical data element details for NUSAT-5 (MARYAM) (NORAD 43204). NUSAT-5 (MARYAM) can be tracked NOW for your location showing map with azimuth and elevation plus other details from your city location.

Track the satellite on the map from your city or location and see movement details for azimuth, elevation, latitude, longitude, range, height, and movement on the map or in text.







IsCatalogInMostPopularTable: catalog: 43204, numindb: 615
Update: records affected: 1



GetName: 43204 NUSAT-5 (MARYAM)

Hit Count: updated at: Mon, 27 Sep 2021 01:41:21 GMT